Printer-friendly version

IAU Minor Planet Center

Minor Planet Center

MPEC 2001-W02: 2001 VF75

The following Minor Planet Electronic Circular may be linked-to from your own Web pages, but must not otherwise be redistributed electronically.


Read MPEC 2001-W01 Read MPEC 2001-W03


M.P.E.C. 2001-W02                                Issued 2001 Nov. 16, 16:30 UT

     The Minor Planet Electronic Circulars contain information on unusual
         minor planets and routine data on comets.  They are published
   on behalf of Commission 20 of the International Astronomical Union by the
          Minor Planet Center, Smithsonian Astrophysical Observatory,
                          Cambridge, MA 02138, U.S.A.

             Prepared using the Tamkin Foundation Computer Network

                              MPC@CFA.HARVARD.EDU
          URL http://cfa-www.harvard.edu/iau/mpc.html  ISSN 1523-6714

                                   2001 VF75

Observations:
     K01V75F* C2001 11 11.31462 03 11 53.42 +20 03 57.2          19.6 V      691
     K01V75F  C2001 11 11.33760 03 11 49.20 +20 05 35.9          19.5 V      691
     K01V75F  C2001 11 11.36175 03 11 44.74 +20 07 20.8          19.4 V      691
     K01V75F tC2001 11 11.45985 03 11 26.64 +20 14 28.6          19.1 V      691
     K01V75F tC2001 11 11.46485 03 11 25.78 +20 14 50.6          19.4 V      691
     K01V75F tC2001 11 11.47077 03 11 24.64 +20 15 15.7          19.9 V      691
     K01V75F tC2001 11 14.42785 03 01 45.21 +24 10 55.3          19.1 V      291
     K01V75F tC2001 11 14.43409 03 01 43.76 +24 11 27.5          19.1 V      291
     K01V75F  C2001 11 14.93310 02 59 53.92 +24 54 54.8                      557
     K01V75F  C2001 11 14.93403 02 59 53.75 +24 55 00.0                      557
     K01V75F  C2001 11 14.93497 02 59 53.49 +24 55 04.5          19.2 V      557
     K01V75F tC2001 11 15.30943 02 58 26.26 +25 28 46.2          19.2 V      291
     K01V75F tC2001 11 15.31387 02 58 25.09 +25 29 10.6          19.4 V      291
     K01V75F tC2001 11 15.31843 02 58 23.97 +25 29 35.6          19.4 V      291
     K01V75F  C2001 11 15.78900 02 56 33.30 +26 12 16.2          18.0 R      046
     K01V75F  C2001 11 15.79012 02 56 33.04 +26 12 22.6                      046
     K01V75F  C2001 11 15.79284 02 56 32.32 +26 12 37.1                      046
     K01V75F  C2001 11 15.79381 02 56 32.09 +26 12 43.2                      046
     K01V75F  C2001 11 16.34212 02 54 12.05 +27 04 12.3          18.5 R      649
     K01V75F  C2001 11 16.34355 02 54 11.64 +27 04 20.4          18.8 R      649
     K01V75F  C2001 11 16.34631 02 54 10.95 +27 04 36.0          18.7 R      649

Observer details:
046 Klet.  Observers M. Tichy, M. Kocer.  0.57-m f/5.2 reflector + CCD.
291 LPL/Spacewatch II.  Observer J. A. Larsen.  1.8-m Spacewatch telescope.
557 Ondrejov.  Observers P. Pravec, P. Kusnirak.  0.65-m f/3.6 reflector + CCD.
649 Powell Observatory, Louisburg.  Observers K. Smalley, R. Trentman.
    0.75-m Newtonian + CCD.
691 Steward Observatory, Kitt Peak.  Observer A. F. Tubbiolo.  0.9-m Spacewatch
    telescope.

Orbital elements:
2001 VF75
Epoch 2001 Nov. 7.0 TT = JDT 2452220.5                  MPC
M 337.06363              (2000.0)            P               Q
n   0.33178143     Peri.   74.07723     -0.49326493     -0.83444549
a   2.0664964      Node    48.15585     +0.61695653     -0.53474973
e   0.5527527      Incl.   19.26121     +0.61323271     -0.13320451
P   2.97           H   21.7           G   0.15
From 21 observations 2001 Nov. 11-16.

Ephemeris:
2001 VF75                a,e,i = 2.07, 0.55, 19                  q = 0.9242
Date    TT    R. A. (2000) Decl.     Delta      r     Elong.  Phase     V
2001 11 07    03 22.42   +15 26.3    0.278    1.266   171.8     6.4    19.9
2001 11 12    03 09.88   +20 54.8    0.239    1.228   176.7     2.6    19.3
2001 11 17    02 51.36   +28 07.8    0.206    1.191   167.4    10.5    19.3
2001 11 22    02 23.65   +37 11.3    0.182    1.155   154.6    21.5    19.4
2001 11 27    01 40.91   +47 27.4    0.167    1.120   139.9    34.6    19.5
2001 12 02    00 33.86   +57 03.3    0.163    1.086   124.6    48.3    19.7
2001 12 07    22 56.95   +63 09.9    0.168    1.055   110.3    61.1    20.1
2001 12 12    21 11.30   +64 11.2    0.181    1.026    98.3    71.7    20.5
2001 12 17    19 49.61   +61 36.3    0.199    1.000    88.9    79.6    21.0
2001 12 22    18 55.91   +57 42.1    0.220    0.977    82.0    85.2    21.3
2001 12 27    18 20.72   +53 37.1    0.242    0.958    77.0    88.8    21.7

Brian G. Marsden             (C) Copyright 2001 MPC           M.P.E.C. 2001-W02

Read MPEC 2001-W01 Read MPEC 2001-W03


Our Web policy. Index to the CBAT/MPC/ICQ pages.


Valid HTML 4.01!